Dewpoint
57 51 52 50 49 49 48 54 40 45 44 38 37 36 37 43 43 40 41 47 44 51 50 53 50 54 51 52 51 50 50 48 51 45 45 54 58 59 62 61 59 59 57 62 64 65 66 67 67 66 66 66 66 66 66 66 66 66 66 66 65 65 64 64 64 64 63 62 62 61 60 60 59 58 56 57 56 57 56 56 56 56 56 56 56 56 58 59 60 60 60 59 58 59 60 61 60
49 48 49 49 50 50 47 54 43 40 39 36 35 35 46 43 41 42 45 46 50 52 52 49 48 51 54 54 50 52 50 49 51 53 57 61 59 61 62 60 61 57 56 60 64 64 64 66 67 66 67 66 66 66 66 66 66 65 66 65 65 64 64 64 63 63 63 63 62 61 60 60 59 57 56 57 56 56 56 56 56 57 58 57 57 58 59 59 60 60 59 59 58 57 58 59 59
49 49 49 50 48 48 48 48 40 38 37 34 40 43 47 44 39 41 49 48 48 48 49 50 51 52 53 54 50 49 46 55 54 56 59 61 59 59 61 62 59 57 56 57 64 63 63 65 67 67 66 66 66 66 65 65 65 65 66 65 64 64 63 63 63 63 63 62 61 60 59 58 58 56 56 57 57 56 55 56 56 57 57 57 57 58 59 60 60 60 60 59 58 57 58 58 58
55 52 52 52 46 53 45 45 42 40 40 39 39 44 44 41 39 44 52 53 47 47 49 45 45 51 49 46 48 50 48 52 55 56 56 58 57 58 59 62 60 57 57 59 62 63 62 65 66 67 66 66 66 66 66 65 65 65 65 64 64 64 63 62 62 63 62 62 61 61 59 58 58 56 56 55 55 55 54 55 56 56 56 56 57 57 57 58 58 59 59 58 58 56 56 56 57
49 52 52 50 48 45 46 43 42 41 38 40 40 46 44 40 44 48 49 51 50 48 52 48 47 51 48 48 48 48 47 57 56 58 57 58 57 58 59 61 60 58 58 55 57 62 63 66 66 67 66 66 66 66 66 66 65 64 65 64 64 63 63 63 62 62 62 62 62 61 61 59 57 56 56 55 55 56 56 56 56 56 56 56 56 57 58 58 59 58 58 57 57 56 56 56 57
49 50 51 50 46 52 45 41 41 40 40 39 38 39 38 40 44 44 44 45 51 49 52 50 46 44 47 43 50 47 53 49 60 56 58 58 58 61 59 63 57 56 56 57 58 63 65 65 66 66 66 66 66 66 66 65 65 65 65 64 64 64 63 63 62 62 62 62 62 61 61 60 58 56 56 57 56 56 56 56 56 55 56 56 56 56 57 57 57 57 57 56 56 55 55 56 56
51 50 56 53 50 49 42 40 38 38 41 38 38 37 38 40 40 43 40 40 52 53 53 50 48 49 45 45 45 48 48 54 55 57 59 58 59 59 60 57 58 56 55 55 57 62 66 65 67 67 67 66 66 66 65 65 65 64 64 64 63 63 63 63 62 62 62 62 61 60 60 59 58 57 56 55 54 54 55 55 56 56 55 55 55 56 56 56 56 57 57 56 56 55 55 56 56
55 49 53 47 46 47 43 42 40 39 39 36 37 36 39 44 42 42 43 39 45 42 50 53 51 46 43 48 42 47 50 49 54 57 57 56 59 56 60 55 57 56 55 56 59 64 63 65 67 67 66 65 65 65 65 64 64 64 64 64 63 63 63 62 62 61 61 61 61 60 59 59 59 57 57 55 54 55 54 54 54 55 55 54 54 54 54 54 55 55 56 56 55 55 55 55 56
52 49 56 48 44 46 41 39 39 39 37 38 37 38 44 48 46 46 40 41 41 44 50 49 51 46 44 43 44 51 47 49 53 55 54 54 57 60 61 58 55 59 58 56 59 64 64 65 66 66 65 66 65 65 65 64 64 64 63 64 63 63 63 62 61 61 61 61 60 60 59 59 59 58 56 55 55 55 54 54 54 54 54 53 52 52 52 52 53 54 55 55 55 55 55 55 55
50 50 45 48 45 39 38 36 34 34 31 36 35 39 42 45 44 39 40 38 40 42 42 45 49 44 44 43 45 50 51 52 52 51 52 54 58 58 56 57 57 55 56 57 59 62 63 63 65 66 65 65 65 65 65 64 64 64 64 63 63 63 62 62 61 60 60 59 60 59 59 59 58 58 56 55 55 54 54 54 54 54 54 53 52 51 51 51 51 53 53 54 54 54 54 54 55
45 48 54 44 40 38 37 33 36 34 33 30 30 38 38 36 43 37 40 38 43 44 47 50 45 45 44 44 44 56 54 53 49 51 51 56 57 54 54 54 57 57 57 58 60 61 63 64 63 64 64 65 65 65 64 63 64 63 64 64 63 62 62 61 60 59 59 59 59 60 59 59 58 57 56 55 55 54 54 53 53 53 53 53 52 52 51 51 50 50 51 52 53 54 54 54 55
42 44 48 41 38 37 33 30 31 30 31 29 32 35 33 29 32 33 35 36 31 32 32 47 45 45 43 42 45 53 53 53 53 54 56 54 54 55 56 53 56 55 57 57 60 60 61 63 63 62 63 63 64 64 63 64 64 63 63 63 62 62 61 62 60 60 59 59 59 59 58 58 57 56 55 55 55 54 53 53 52 52 52 52 51 52 51 50 49 49 49 51 52 53 53 53 53
43 46 38 37 35 35 34 33 32 32 28 27 31 33 27 21 20 27 28 28 33 31 44 44 45 41 39 38 49 52 52 52 52 53 53 52 54 54 56 55 58 58 59 58 59 60 62 63 63 62 62 61 62 62 63 63 63 63 63 62 62 62 62 60 60 60 59 59 59 58 58 58 57 56 55 55 54 54 53 52 52 51 51 51 51 51 51 51 50 49 52 52 52 52 51 52 53
43 45 40 38 39 34 30 29 30 30 27 26 29 26 23 21 23 26 27 24 25 28 43 40 38 36 34 35 39 49 49 51 49 52 52 54 53 53 56 54 56 57 59 59 59 61 62 63 63 63 62 62 62 61 62 62 62 62 62 63 62 62 62 61 61 60 60 60 59 59 59 58 57 56 55 54 54 53 52 52 52 51 51 51 51 51 50 50 50 49 48 49 49 49 50 51 52
39 42 41 39 34 32 31 29 29 30 29 28 27 25 26 21 22 30 28 28 28 27 26 31 34 34 31 28 30 47 48 48 50 53 53 55 55 54 56 56 57 57 56 57 57 59 59 62 62 62 61 62 62 62 61 61 61 61 61 61 62 62 61 61 61 60 60 59 59 58 57 57 56 56 56 54 54 53 54 53 51 51 51 51 51 50 50 50 50 50 48 47 48 48 48 50 51
45 42 43 38 33 31 28 26 27 32 30 21 26 24 26 26 30 32 26 31 30 28 27 24 37 32 31 30 28 46 47 49 50 51 52 54 55 55 54 54 54 54 56 57 57 58 60 61 62 63 63 62 61 61 61 60 60 60 60 60 60 60 61 60 60 59 58 58 57 56 56 55 55 55 56 53 54 54 54 52 52 51 51 50 51 50 50 51 50 48 48 47 47 47 48 49 50
49 48 36 34 31 31 30 26 25 27 18 18 17 19 20 18 26 27 33 36 30 28 27 25 23 34 36 36 36 46 48 49 51 51 51 51 52 52 52 53 53 54 55 55 57 58 59 59 62 62 62 62 61 60 61 60 60 59 59 59 59 59 59 59 59 58 57 56 55 55 54 51 51 52 50 51 55 50 53 53 53 51 51 50 50 49 49 48 48 47 47 46 47 47 46 46 47
48 39 37 33 29 25 21 20 23 22 18 15 18 21 21 17 17 23 26 23 24 21 19 17 19 26 27 32 36 46 48 49 49 49 49 50 50 50 50 51 52 52 54 55 56 57 58 58 61 61 62 62 61 61 61 60 59 59 60 60 59 59 59 58 58 58 54 55 54 52 51 50 50 49 49 50 48 49 51 53 53 52 50 49 48 48 47 47 47 47 46 46 45 40 40 43 43
37 36 33 28 29 25 20 22 17 17 20 19 19 21 18 16 15 16 19 19 19 18 16 15 13 15 15 30 35 45 47 47 47 48 47 47 47 47 49 51 51 51 52 54 55 56 57 59 61 61 61 61 62 61 60 60 60 59 58 59 59 58 57 56 58 56 55 54 52 51 50 49 49 48 48 48 48 50 48 51 51 52 50 48 47 47 48 47 47 46 46 46 43 36 38 44 41
29 30 24 24 24 16 15 20 18 15 23 20 17 14 14 13 13 22 21 17 15 16 16 12 10 11 12 14 15 39 44 44 46 47 47 46 46 44 43 44 50 51 52 53 54 55 56 58 60 60 60 61 61 60 60 60 59 59 58 59 59 58 57 57 57 56 55 54 53 52 52 50 49 48 49 48 48 47 48 50 51 52 51 51 50 49 48 48 46 47 48 45 42 42 36 35 36
24 25 24 25 20 15 12 13 16 26 25 21 17 15 15 15 18 18 17 14 13 12 10 10 11 11 13 14 19 26 39 43 43 46 43 44 44 43 44 44 44 49 51 52 53 54 55 56 60 60 59 61 59 60 60 60 59 59 58 58 58 58 56 57 56 55 54 53 53 51 51 50 49 47 47 46 46 46 46 47 47 46 46 46 48 45 45 47 46 45 44 42 37 35 30 30 29
21 19 16 15 14 11 11 15 18 25 25 21 16 13 13 15 16 16 12 11 12 12 10 11 11 13 13 13 16 22 21 21 23 32 33 36 40 42 42 43 45 46 50 51 51 52 54 55 57 59 59 60 60 60 59 59 59 58 58 58 58 57 55 55 55 54 54 53 52 50 50 49 47 46 46 46 46 45 46 46 45 45 45 44 44 44 45 44 44 43 41 38 34 28 28 27 26
20 20 12 9 7 10 14 16 23 25 20 20 16 14 15 14 13 13 11 11 10 11 11 11 12 12 10 11 14 18 22 23 24 28 30 34 35 38 40 42 43 44 49 49 51 52 53 54 55 58 59 60 60 59 59 59 59 59 57 57 57 57 56 54 54 55 54 53 51 50 49 48 47 46 46 46 45 45 45 45 44 44 44 44 43 43 44 44 42 40 36 32 30 28 28 28 28
16 15 12 10 7 7 15 16 15 12 17 18 16 15 14 14 12 12 11 11 15 11 8 14 17 19 14 12 16 19 21 22 23 25 28 32 35 35 35 38 40 43 47 48 49 51 52 54 54 55 59 59 60 59 59 58 59 58 57 55 55 55 54 53 53 55 52 51 50 49 49 47 46 46 46 46 45 45 45 44 44 44 44 43 43 43 43 42 38 34 29 27 25 27 27 28 26
10 11 8 9 10 12 15 14 12 16 16 15 15 14 14 13 11 14 12 12 7 5 5 7 9 11 13 14 15 16 18 19 19 22 23 23 23 26 32 36 39 42 44 47 48 48 51 52 54 55 55 57 58 58 58 58 58 57 56 55 54 54 54 53 53 53 51 52 51 49 48 47 47 46 46 46 45 45 45 44 43 44 44 43 43 43 42 39 34 29 26 24 23 24 25 25 26
25 16 15 14 14 12 9 8 8 10 14 14 13 13 13 12 13 12 10 8 5 7 9 9 10 10 11 12 17 19 20 21 22 23 23 24 25 22 22 22 26 34 40 43 47 49 48 50 52 53 55 57 57 58 56 56 56 57 56 55 56 54 55 54 53 53 53 52 50 49 49 47 47 46 46 46 46 45 45 44 44 45 44 43 43 41 39 36 31 27 25 21 19 22 21 23 24
17 15 11 9 10 10 9 7 7 8 11 13 12 12 11 15 15 10 8 5 8 9 10 11 12 13 13 14 19 21 21 21 21 22 23 25 25 24 24 23 23 23 26 31 43 46 48 47 51 52 55 56 56 57 57 57 55 54 54 54 54 53 55 54 53 53 52 52 51 50 49 48 47 47 46 46 46 46 45 44 44 44 43 42 42 40 38 34 31 27 24 21 21 20 21 22 21
15 12 11 11 10 9 8 8 9 13 13 15 13 12 13 14 18 9 4 7 10 11 13 14 15 16 16 18 19 20 20 20 21 22 22 24 25 24 24 24 23 24 26 28 31 39 45 46 48 52 54 56 55 55 55 56 56 55 54 54 54 54 54 54 53 53 52 53 51 51 52 50 47 47 46 46 46 45 45 44 43 43 42 41 40 39 37 34 30 27 25 21 21 20 20 20 21
13 13 12 11 9 10 10 7 8 15 13 16 15 12 17 20 6 5 6 9 12 13 13 15 15 16 17 18 18 19 19 20 20 21 22 24 26 26 25 27 28 29 30 30 31 34 37 44 46 47 52 54 53 54 54 54 54 54 53 54 54 53 54 53 52 52 52 51 51 51 52 51 48 48 48 47 47 47 46 45 43 42 41 40 39 38 36 33 29 27 25 25 21 18 19 20 24
14 10 11 11 16 13 11 13 14 12 13 20 15 16 13 6 6 7 9 10 12 13 14 14 15 16 16 17 17 18 19 19 19 20 22 24 26 27 27 29 33 34 34 34 33 35 38 41 46 49 48 52 54 54 53 53 53 53 53 52 50 51 52 52 52 52 51 52 51 51 51 50 49 48 48 47 47 46 45 43 42 41 40 39 38 37 34 30 27 25 24 22 23 18 19 19 18
15 18 22 20 19 16 18 15 13 11 17 17 18 17 12 6 8 10 11 12 13 13 14 15 16 16 16 18 17 18 19 19 19 19 20 22 25 27 28 29 32 35 36 37 36 37 39 42 44 44 47 48 52 54 52 53 52 54 52 52 52 52 52 52 52 52 52 51 51 51 51 50 48 47 47 47 46 45 44 43 42 41 40 39 37 36 33 29 26 25 25 20 21 19 19 20 18
19 23 20 24 16 20 14 14 12 8 14 13 21 19 12 7 9 11 13 13 13 14 14 15 16 16 17 17 17 17 18 19 19 19 20 21 23 26 29 30 30 32 34 36 38 39 40 41 44 44 46 48 49 50 51 52 52 52 52 52 52 52 51 50 50 50 51 51 50 50 50 49 49 47 47 47 45 44 43 42 42 40 39 38 37 36 33 29 27 28 25 20 18 17 18 18 20
19 19 18 18 14 14 16 14 16 22 13 17 15 19 7 8 11 12 13 13 14 14 15 16 16 17 17 17 17 17 18 18 19 19 19 21 22 23 24 28 30 31 32 34 36 38 39 41 42 42 43 47 49 48 50 51 52 51 51 52 52 51 50 50 50 51 50 50 49 49 49 49 49 49 49 48 48 48 43 42 41 40 38 37 36 35 33 31 27 29 25 22 18 16 16 17 18
21 23 17 23 12 13 11 15 17 24 17 17 16 19 12 9 11 12 14 14 14 14 15 16 16 17 17 17 17 17 17 18 18 18 19 20 21 22 22 26 26 28 31 33 36 37 37 38 39 41 42 43 44 50 51 53 52 52 52 52 50 49 49 49 49 49 48 49 48 48 48 48 48 48 47 47 46 45 43 42 41 40 38 36 35 34 32 29 27 27 24 23 21 19 16 17 17
18 17 17 17 17 15 11 11 21 18 27 22 18 15 13 10 12 13 14 15 15 15 15 16 16 17 17 17 17 17 17 18 18 18 19 21 21 21 22 22 23 23 24 26 31 32 34 35 38 38 39 40 41 43 45 50 53 51 51 51 50 50 49 48 48 48 48 48 48 48 48 48 48 48 47 46 44 43 42 41 41 40 37 35 34 32 32 28 26 26 24 23 24 23 19 20 20
19 18 21 21 16 12 10 19 25 30 22 25 16 14 9 10 11 13 14 15 15 15 16 16 16 17 18 18 18 17 18 18 20 20 20 20 21 22 21 21 22 22 22 22 25 26 27 29 32 36 36 37 40 42 43 45 47 50 47 48 48 48 48 47 48 48 48 48 47 47 47 46 46 45 46 46 44 43 43 43 39 38 35 34 33 31 30 28 25 25 24 23 22 23 25 22 22
14 22 22 18 17 15 14 23 26 27 21 13 16 17 7 10 11 13 14 15 15 15 16 16 17 17 18 18 18 19 18 18 21 21 20 21 21 21 21 21 21 20 21 21 22 23 23 24 26 30 31 34 36 37 41 42 44 45 47 48 46 46 46 46 46 47 47 47 45 46 46 46 45 45 44 44 45 44 44 44 41 39 34 32 31 30 30 28 26 25 25 26 22 21 22 24 23
19 20 22 18 20 14 13 17 22 28 22 14 15 10 10 11 12 13 15 16 15 16 16 16 16 17 18 19 19 19 19 21 20 18 18 19 20 21 21 20 23 20 20 20 20 21 22 22 22 25 27 28 29 32 35 38 43 45 46 46 48 49 46 46 46 47 47 47 46 45 45 45 44 44 44 44 43 44 42 42 41 41 40 39 37 32 30 30 28 27 26 25 25 21 20 23 26
23 19 19 19 19 18 23 22 21 23 23 13 8 6 9 10 13 14 15 16 17 17 17 17 17 17 18 19 19 19 19 18 17 17 18 18 19 20 19 19 19 20 20 19 20 20 21 21 21 22 23 23 24 27 30 33 39 42 45 45 46 47 49 48 47 46 47 47 47 46 45 45 45 44 44 43 43 43 43 42 41 41 39 37 35 35 36 34 32 29 25 23 25 25 23 26 23
18 18 18 15 21 19 14 25 24 19 15 17 11 7 10 12 13 14 15 16 17 19 19 20 21 18 18 18 19 19 19 19 17 17 16 17 17 17 18 18 18 19 19 19 19 19 20 21 21 21 22 21 22 23 26 29 35 38 41 44 44 45 45 45 45 46 44 43 43 42 44 44 44 43 43 42 42 42 41 40 39 37 37 36 34 32 31 31 31 28 26 24 24 21 22 21 22
23 24 20 16 21 21 19 13 18 23 24 20 14 16 14 13 13 14 15 17 17 19 18 19 20 22 21 22 20 20 19 20 18 17 17 16 16 17 17 17 17 17 18 18 18 18 19 19 20 21 21 21 21 22 21 23 28 32 34 37 39 41 41 43 43 42 44 43 41 41 41 42 43 43 43 42 41 41 40 39 38 37 35 34 33 33 32 32 31 30 28 25 22 22 20 20 22
17 21 23 17 18 18 16 16 14 10 6 22 18 9 8 11 12 13 15 16 17 18 19 19 20 20 21 19 20 21 21 21 19 18 18 17 17 17 17 16 16 16 16 17 16 17 17 18 18 19 20 21 20 20 21 21 21 24 28 32 35 36 36 37 38 38 39 40 42 44 40 40 40 40 41 41 41 40 39 39 38 37 35 35 34 34 34 32 30 31 31 31 28 23 21 19 18
11 12 25 23 18 20 20 18 16 11 7 20 24 5 5 10 10 13 15 16 17 18 19 19 19 20 20 20 20 20 20 20 21 20 19 18 18 18 17 16 16 16 16 17 16 16 16 16 16 17 19 20 19 20 20 21 20 20 20 22 28 33 33 34 36 36 39 40 41 40 41 38 37 38 39 39 39 39 39 38 36 36 36 35 34 34 33 33 33 32 31 31 31 31 28 24 23
7 21 25 21 20 17 18 20 17 11 17 20 16 11 1 3 8 15 16 16 17 17 18 19 19 19 20 19 20 20 20 20 20 20 19 20 19 19 18 18 17 17 17 17 16 16 15 16 16 16 16 18 18 19 19 19 19 19 19 19 21 22 21 28 30 32 35 35 34 35 37 38 36 36 35 37 37 37 37 36 36 36 36 35 35 34 33 33 33 33 33 32 32 32 31 28 28
18 24 27 21 21 19 19 17 12 12 9 9 9 13 4 5 13 15 16 15 16 17 18 19 20 20 20 21 20 20 20 20 19 19 19 19 19 19 19 19 19 19 19 18 17 17 17 16 16 15 14 15 16 18 19 18 19 18 17 17 17 19 20 22 24 31 32 32 32 33 33 33 35 36 34 34 35 36 36 35 35 35 35 35 35 34 34 33 33 33 32 32 31 31 31 31 30
27 26 25 24 24 22 22 14 11 10 7 9 9 14 6 -2 12 12 15 15 16 17 18 19 20 21 21 21 21 20 20 21 20 19 19 19 19 19 19 19 19 19 20 21 19 18 18 17 16 15 15 15 15 15 17 17 18 18 17 16 16 17 18 19 19 19 22 27 29 31 32 32 33 33 34 34 34 34 34 34 34 34 34 34 34 34 33 33 32 32 32 32 32 31 31 30 30
25 24 19 19 21 19 18 15 11 11 10 10 15 15 5 4 10 11 10 14 17 17 18 19 21 21 21 21 20 21 21 21 20 20 20 20 20 19 19 18 18 19 19 19 19 19 18 18 17 16 15 15 14 14 15 16 16 16 17 16 15 16 16 17 17 18 18 18 18 21 24 27 29 29 31 32 33 33 33 33 33 33 33 33 33 33 32 32 31 31 31 31 31 30 30 29 29
25 17 12 11 8 12 11 9 11 7 9 8 5 8 16 3 7 11 15 17 19 18 17 18 19 20 21 20 20 20 20 20 21 20 20 20 20 20 20 19 19 19 18 18 18 19 18 18 16 16 15 15 15 15 14 14 16 16 16 16 14 15 15 16 15 17 17 16 17 18 19 21 23 24 26 27 28 30 32 31 32 31 31 32 31 31 31 31 31 30 30 30 30 30 29 29 28
22 16 14 7 7 5 5 5 8 10 11 -1 2 9 2 -2 11 14 15 17 19 20 20 18 18 19 19 19 19 20 20 19 20 19 19 20 20 19 20 20 20 19 19 18 18 19 18 17 16 14 14 14 14 14 14 12 14 15 15 16 14 15 15 15 15 15 16 16 16 17 17 17 18 19 21 23 24 24 27 28 29 30 30 30 30 29 30 30 29 28 28 28 29 29 29 28 28
11 6 8 9 6 1 -0 1 4 6 9 3 3 10 1 5 12 14 15 17 18 18 19 19 19 18 18 19 20 20 21 20 20 20 20 18 19 19 19 20 20 20 18 18 18 18 18 17 16 15 14 13 14 12 13 13 10 13 15 15 15 13 14 14 14 15 14 15 16 16 16 17 17 18 19 21 22 22 22 23 25 26 28 29 29 29 29 29 29 27 26 26 26 26 27 27 27
6 15 9 7 4 2 2 4 4 6 7 5 12 6 5 2 14 16 16 17 18 19 19 18 18 18 19 18 19 19 19 19 19 18 18 17 17 17 18 19 19 19 18 19 18 17 17 16 16 14 14 14 13 12 12 13 11 11 14 15 14 13 12 13 13 16 14 14 15 14 15 16 16 17 18 20 21 20 19 20 21 23 24 26 28 28 29 28 28 27 26 25 25 25 25 25 25
13 11 15 9 8 4 9 8 7 6 6 5 4 6 12 13 15 17 17 17 17 19 18 19 17 17 17 17 18 18 18 18 18 18 17 16 16 16 16 17 18 18 18 18 17 17 16 15 15 14 13 13 13 13 11 13 12 11 12 14 13 13 12 11 12 13 12 13 14 13 14 15 15 16 17 19 19 18 18 18 19 18 20 22 23 24 26 27 26 25 24 23 22 25 23 22 22
8 8 11 5 7 2 9 6 7 7 8 5 6 3 10 13 14 15 16 17 17 17 18 18 18 17 17 17 17 15 16 16 16 16 15 16 15 16 16 15 17 18 18 18 17 17 16 15 14 14 13 13 13 12 11 12 12 11 11 12 12 11 10 8 8 9 10 11 12 12 13 14 15 15 17 18 18 17 16 18 17 17 18 19 19 21 23 23 25 24 23 24 23 22 23 21 21
13 10 7 16 16 13 7 5 5 5 3 3 6 6 5 7 7 14 14 15 16 17 16 17 17 17 16 18 17 16 16 15 14 14 13 14 15 16 15 15 16 17 17 17 18 18 17 16 14 13 13 12 12 12 11 11 10 11 11 11 10 11 10 8 8 7 8 9 9 10 11 12 13 14 16 17 17 16 16 18 16 16 16 18 19 19 21 22 22 21 21 21 22 23 22 22 22
14 7 21 10 10 10 7 6 3 5 4 6 6 6 6 12 10 11 11 11 14 14 15 16 16 14 15 17 17 16 15 16 15 15 15 13 13 12 15 15 15 16 17 17 17 18 17 16 16 14 13 13 13 13 12 12 10 11 13 11 9 10 11 9 9 7 6 6 7 8 9 11 11 12 12 13 14 14 15 16 16 16 17 17 19 19 21 21 21 20 20 20 20 21 21 21 21
22 21 12 17 5 11 10 10 9 7 5 4 4 6 3 12 12 12 13 14 14 14 15 15 14 13 14 15 16 16 15 15 15 15 14 14 13 10 14 15 14 15 15 16 16 18 17 16 15 14 13 12 12 12 11 11 11 10 9 8 7 9 9 9 7 6 4 4 5 6 7 8 10 10 10 11 12 12 13 14 14 15 17 18 19 19 20 21 21 21 21 20 19 20 19 19 20
8 11 12 15 15 14 10 13 10 8 6 6 5 5 7 10 14 14 13 14 14 14 14 14 13 12 12 12 14 13 13 14 13 12 11 10 10 10 13 14 15 14 14 15 16 16 17 17 15 13 12 12 12 11 11 11 11 10 9 7 5 6 6 7 5 4 3 3 5 7 6 8 9 8 8 8 9 10 11 12 12 14 15 17 19 19 20 21 22 22 22 23 24 22 20 18 19
11 9 11 10 12 11 7 6 9 10 9 7 6 5 8 14 15 14 13 13 14 14 14 13 13 13 12 13 13 12 13 12 11 11 10 10 9 9 13 15 15 14 13 11 12 14 14 16 16 14 13 12 12 12 12 11 10 9 6 6 6 5 7 7 3 3 2 2 2 4 5 6 7 7 6 6 7 8 9 10 11 12 13 15 16 18 19 20 20 21 21 23 23 24 24 24 23